sat.trackr.live / text

‹ back to catalog

CUPID

NORAD 49264 · 2021-088E

PAYLOAD ACTIVE UNKNOWN

§ Identity

Operator
Country
US
Launch date
2021-09-27
Launch site
AFWTR
Launch vehicle
Mass (kg)
RCS (m²)

External: N2YO · Heavens-Above · Gunter

§ Orbital elements

Epoch: 2026-05-25T02:34:43.999680Z

Period
94.39 min
Inclination
97.3883°
Eccentricity
0.0013496
Mean motion
15.25613316 rev/d
Perigee alt
479.7 km
Apogee alt
498.2 km
Semi-major
6,867.1 km
B*
2.8768e-4
RAAN
206.5755°
Arg perigee
141.1057°
Mean anomaly
219.1155°
Rev number
25,666

§ Raw data

CUPID1 49264U 21088E   26145.10745370  .00007258  00000+0  28768-3 0  99942 49264  97.3883 206.5755 0013496 141.1057 219.1155 15.25613316256669

JSON: /api/v1/satellites/49264 · /tle

For live sub-satellite position, see the globe view (requires WebGL).

§ Visibility from observer

Set your observer location to see the next 7 days of passes ≥ 10°. The values pass through the URL so the page stays shareable.

No JS? Fill the form by hand. The geolocation button needs JavaScript.